Watsonville, CA

7:28 PM PDT on April 20, 2018 (GMT -0700)
Watsonville Municipal

Weather History for KWVI - March, 2012

Change the Weather History Date:

Saturday, March 17, 2012

  Actual Average Record
Temperature  
Mean Temperature 48 °F 53 °F  
Max Temperature 53 °F 63 °F 86 °F (2004)
Min Temperature 43 °F 44 °F 35 °F (2002)
Degree Days  
Heating Degree Days 17    
Month to date heating degree days 175  
Since 1 July heating degree days 1980  
Cooling Degree Days 0    
Month to date cooling degree days 0  
Year to date cooling degree days 0  
Moisture  
Dew Point 43 °F    
Average Humidity 80    
Maximum Humidity 100    
Minimum Humidity 59    
Precipitation  
Precipitation 0.27 in - 0.84 in (1983)
Month to date precipitation 3.15  
Year to date precipitation 6.75  
Since 1 July precipitation 11.04  
Sea Level Pressure  
Sea Level Pressure 29.63 in    
Wind  
Wind Speed 3 mph (West)    
Max Wind Speed 14 mph    
Max Gust Speed 25 mph    
Visibility 8 miles    
Events Rain    
T = Trace of Precipitation, MM = Missing Value Source: NWS Daily Summary

Daily Weather History Graph

Daily Weather History Graph

Search for Another Location

Airport or City:

Astronomy

Mar. 17, 2012 Rise Set
Actual Time 7:14 AM PDT 7:16 PM PDT
Civil Twilight 6:48 AM PDT 7:42 PM PDT
Nautical Twilight 6:18 AM PDT 8:12 PM PDT
Astronomical Twilight 5:47 AM PDT 8:43 PM PDT
Moon 4:13 AM PDT (3/17) 2:52 PM PDT (3/17)
Length of Visible Light 12h 54m
Length of Day
12h 02m
Waning Crescent, 22% of the Moon is Illuminated
Mar 17
Waning Crescent
Mar 22
New
Mar 30
First Quarter
Apr 6
Full
Apr 13
Last Quarter

Hourly Weather History & Observations

Time (PDT) Temp. Windchill Dew Point Humidity Pressure Visibility Wind Dir Wind Speed Gust Speed Precip Events Conditions
12:53 AM 52.0 °F - 50.0 °F 93% 29.76 in 10.0 mi SE 3.5 mph - 0.00 in   Overcast
1:27 AM 51.8 °F - 50.0 °F 94% 29.74 in 10.0 mi Calm Calm - N/A   Mostly Cloudy
1:53 AM 51.1 °F - 48.9 °F 92% 29.73 in 7.0 mi Calm Calm - N/A   Clear
2:53 AM 48.9 °F - 48.0 °F 97% 29.71 in 10.0 mi Calm Calm - N/A   Clear
3:11 AM 48.2 °F - 46.4 °F 93% 29.69 in 2.5 mi NW 3.5 mph - N/A   Partly Cloudy
3:23 AM 48.2 °F - 46.4 °F 93% 29.68 in 10.0 mi NW 3.5 mph - N/A   Partly Cloudy
3:31 AM 48.2 °F - 46.4 °F 93% 29.68 in 1.8 mi Calm Calm - N/A   Scattered Clouds
3:33 AM 48.2 °F - 46.4 °F 93% 29.68 in 1.0 mi WNW 3.5 mph - N/A   Mist
3:41 AM 48.2 °F - 46.4 °F 93% 29.67 in 0.8 mi NW 3.5 mph - N/A   Mist
3:44 AM 48.2 °F - 46.4 °F 93% 29.67 in 1.2 mi NW 3.5 mph - N/A   Scattered Clouds
3:46 AM 48.2 °F - 46.4 °F 93% 29.67 in 2.0 mi NW 3.5 mph - N/A   Scattered Clouds
3:53 AM 48.0 °F - 46.0 °F 93% 29.66 in 10.0 mi Calm Calm - N/A   Scattered Clouds
4:53 AM 46.0 °F 43.9 °F 44.1 °F 93% 29.64 in 10.0 mi NW 4.6 mph - N/A   Clear
5:53 AM 45.0 °F 43.5 °F 43.0 °F 93% 29.62 in 10.0 mi NW 3.5 mph - N/A   Mostly Cloudy
6:53 AM 46.0 °F - 43.0 °F 89% 29.60 in 10.0 mi Calm Calm - N/A   Overcast
7:53 AM 46.9 °F - 42.1 °F 83% 29.57 in 10.0 mi Calm Calm - N/A   Scattered Clouds
8:53 AM 50.0 °F - 44.1 °F 80% 29.56 in 10.0 mi Calm Calm - N/A   Overcast
9:53 AM 51.1 °F - 44.1 °F 77% 29.57 in 10.0 mi Calm Calm - N/A   Overcast
10:53 AM 48.9 °F - 41.0 °F 74% 29.56 in 6.0 mi East 8.1 mph - 0.04 in Rain Rain
11:53 AM 48.9 °F - 43.0 °F 80% 29.55 in 6.0 mi West 3.5 mph - 0.08 in Rain Light Rain
12:53 PM 48.9 °F - 41.0 °F 74% 29.55 in 10.0 mi Calm Calm - 0.05 in Rain Light Rain
1:43 PM 48.2 °F - 42.8 °F 82% 29.56 in 2.5 mi WSW 5.8 mph - 0.05 in Rain Heavy Rain
1:53 PM 48.0 °F - 41.0 °F 77% 29.55 in 4.0 mi SSW 5.8 mph - 0.07 in Rain Light Rain
2:53 PM 50.0 °F - 42.1 °F 74% 29.56 in 10.0 mi Calm Calm - 0.01 in Rain Light Rain
3:53 PM 52.0 °F - 41.0 °F 66% 29.57 in 10.0 mi Calm Calm - 0.02 in   Overcast
4:53 PM 52.0 °F - 41.0 °F 66% 29.58 in 10.0 mi Calm Calm - N/A   Overcast
5:53 PM 52.0 °F - 37.9 °F 59% 29.59 in 10.0 mi West 6.9 mph - N/A   Overcast
6:53 PM 50.0 °F - 37.9 °F 63% 29.61 in 10.0 mi West 5.8 mph - N/A   Clear
7:53 PM 48.9 °F - 37.0 °F 64% 29.62 in 10.0 mi West 4.6 mph - N/A   Clear
8:53 PM 46.9 °F - 37.0 °F 68% 29.64 in 10.0 mi WSW 4.6 mph - N/A   Clear
9:53 PM 48.9 °F - 37.0 °F 64% 29.66 in 10.0 mi West 6.9 mph 18.4 mph N/A   Partly Cloudy
10:53 PM 46.9 °F - 37.0 °F 68% 29.69 in 10.0 mi WSW 8.1 mph - N/A   Scattered Clouds
11:53 PM 46.9 °F - 36.0 °F 66% 29.71 in 10.0 mi WSW 9.2 mph - N/A   Partly Cloudy